Location: Laterina
(43.5167°N, 11.7167°E)
Time: 01:46:28
(UTC+00:00)

O/OREOS (USA 219) - Visible Passes

Search period start: 27 February 2021 00:00
Search period end: 09 March 2021 00:00
Orbit: 621 x 646 km, 72.0° (Epoch: 22 May)

Date Brightness Start Highest point End Pass type
(mag) Time Alt. Az. Time Alt. Az. Time Alt. Az.
04 Mar ? 05:18:14 10° NNE 05:20:13 13° NE 05:22:11 10° ENE visible
07 Mar ? 04:44:46 10° NNE 04:47:06 14° NE 04:49:24 10° E visible
08 Mar ? 05:05:46 10° N 05:09:33 26° ENE 05:13:19 10° ESE visible
